EN

Hourly Weather Bortatycze

Today, 16 April, Friday

Time Temperature Precipitation Wind Pressure Humidity
00:00 -1°C° 0.6 mm 4 mps 743 mmHg 99%
01:00 -1°C° 0.6 mm 4 mps 742 mmHg 99%
02:00 -1°C° 0.6 mm 4 mps 742 mmHg 99%
03:00 -1°C° 0.9 mm 4 mps 742 mmHg 99%
04:00 -1°C° 0.9 mm 4 mps 742 mmHg 99%
05:00 -1°C° 0.9 mm 4 mps 741 mmHg 99%
06:00 -1°C° 0.9 mm 5 mps 741 mmHg 99%
07:00 -1°C° 0.9 mm 5 mps 741 mmHg 99%
08:00 -1°C° 0.9 mm 5 mps 741 mmHg 99%
09:00 -1°C° 1.4 mm 5 mps 741 mmHg 99%
10:00 -1°C° 1.4 mm 5 mps 741 mmHg 99%
11:00 -1°C° 1.4 mm 5 mps 741 mmHg 99%
12:00 0°C° 0.8 mm 5 mps 741 mmHg 99%
13:00 0°C° 0.8 mm 5 mps 741 mmHg 99%
14:00 0°C° 0.8 mm 5 mps 741 mmHg 99%
15:00 -1°C° 0.9 mm 6 mps 741 mmHg 99%
16:00 -1°C° 0.9 mm 6 mps 741 mmHg 99%
17:00 +1°C° 0.9 mm 6 mps 741 mmHg 99%
18:00 +1°C° 0.9 mm 6 mps 741 mmHg 99%
19:00 +1°C° 0.9 mm 5 mps 742 mmHg 99%
20:00 +1°C° 0.9 mm 5 mps 742 mmHg 99%
21:00 +1°C° 0.3 mm 5 mps 742 mmHg 99%
22:00 +1°C° 0.3 mm 4 mps 742 mmHg 99%
23:00 +1°C° 0.3 mm 4 mps 742 mmHg 99%

Tomorrow, 17 April, Saturday

Time Temperature Precipitation Wind Pressure Humidity
00:00 +1°C° 0.1 mm 4 mps 743 mmHg 98%
01:00 0°C° 0.1 mm 4 mps 743 mmHg 98%
02:00 0°C° 0.1 mm 4 mps 743 mmHg 98%
03:00 0°C° 0.4 mm 4 mps 743 mmHg 98%
04:00 0°C° 0.4 mm 4 mps 743 mmHg 98%
05:00 0°C° 0.4 mm 4 mps 743 mmHg 98%
06:00 +1°C° 0.6 mm 3 mps 744 mmHg 98%
07:00 +1°C° 0.6 mm 3 mps 744 mmHg 98%
08:00 +1°C° 0.6 mm 3 mps 744 mmHg 98%
09:00 +2°C° 0.1 mm 3 mps 745 mmHg 98%
10:00 +2°C° 0.1 mm 3 mps 745 mmHg 97%
11:00 +3°C° 0.1 mm 2 mps 745 mmHg 97%
12:00 +3°C° 0 mm 2 mps 745 mmHg 97%
13:00 +4°C° 0 mm 2 mps 745 mmHg 97%
14:00 +4°C° 0 mm 2 mps 746 mmHg 97%
15:00 +5°C° 0 mm 1 mps 746 mmHg 96%
16:00 +5°C° 0 mm 1 mps 746 mmHg 96%
17:00 +5°C° 0 mm 0 mps 746 mmHg 96%
18:00 +5°C° 0 mm 1 mps 746 mmHg 96%
19:00 +5°C° 0 mm 1 mps 746 mmHg 96%
20:00 +5°C° 0 mm 1 mps 746 mmHg 97%
21:00 +4°C° 0 mm 1 mps 746 mmHg 97%
22:00 +4°C° 0 mm 1 mps 746 mmHg 97%
23:00 +4°C° 0 mm 1 mps 746 mmHg 97%

Day after tomorrow, 18 April, Sunday

Time Temperature Precipitation Wind Pressure Humidity
00:00 +4°C° 0 mm 1 mps 746 mmHg 97%
01:00 +4°C° 0 mm 1 mps 746 mmHg 97%
02:00 +4°C° 0 mm 1 mps 746 mmHg 97%
03:00 +4°C° 0 mm 1 mps 746 mmHg 96%
04:00 +4°C° 0 mm 1 mps 745 mmHg 96%
05:00 +3°C° 0 mm 1 mps 745 mmHg 96%
06:00 +4°C° 0 mm 1 mps 745 mmHg 95%
07:00 +4°C° 0 mm 1 mps 745 mmHg 94%
08:00 +5°C° 0 mm 1 mps 745 mmHg 94%
09:00 +5°C° 0 mm 2 mps 745 mmHg 93%
10:00 +5°C° 0 mm 2 mps 745 mmHg 92%
11:00 +5°C° 0 mm 3 mps 745 mmHg 92%
12:00 +6°C° 0.2 mm 2 mps 744 mmHg 93%
13:00 +6°C° 0.2 mm 2 mps 744 mmHg 95%
14:00 +6°C° 0.2 mm 2 mps 744 mmHg 96%
15:00 +7°C° 0.1 mm 1 mps 744 mmHg 96%
16:00 +8°C° 0.1 mm 1 mps 744 mmHg 95%
17:00 +8°C° 0.1 mm 1 mps 744 mmHg 94%
18:00 +8°C° 0.1 mm 1 mps 744 mmHg 95%
19:00 +8°C° 0.1 mm 1 mps 744 mmHg 96%
20:00 +7°C° 0.1 mm 1 mps 744 mmHg 96%
21:00 +7°C° 0 mm 1 mps 744 mmHg 97%
22:00 +7°C° 0 mm 1 mps 744 mmHg 97%
23:00 +6°C° 0 mm 2 mps 744 mmHg 97%

19 April, Monday

Time Temperature Precipitation Wind Pressure Humidity
00:00 +6°C° 0 mm 2 mps 744 mmHg 97%
01:00 +6°C° 0 mm 2 mps 744 mmHg 97%
02:00 +6°C° 0 mm 2 mps 744 mmHg 97%
03:00 +5°C° 0 mm 2 mps 744 mmHg 97%
04:00 +4°C° 0 mm 3 mps 744 mmHg 97%
05:00 +4°C° 0 mm 3 mps 744 mmHg 96%
06:00 +4°C° 0 mm 4 mps 744 mmHg 93%
07:00 +4°C° 0 mm 4 mps 744 mmHg 89%
08:00 +4°C° 0 mm 4 mps 744 mmHg 86%
09:00 +6°C° 0 mm 4 mps 744 mmHg 80%
10:00 +7°C° 0 mm 4 mps 743 mmHg 74%
11:00 +8°C° 0 mm 4 mps 743 mmHg 68%
12:00 +8°C° 0 mm 4 mps 743 mmHg 67%
13:00 +9°C° 0 mm 3 mps 743 mmHg 67%
14:00 +9°C° 0 mm 2 mps 743 mmHg 67%
15:00 +9°C° 0 mm 3 mps 742 mmHg 67%
16:00 +9°C° 0 mm 3 mps 742 mmHg 68%
17:00 +10°C° 0 mm 4 mps 741 mmHg 68%
18:00 +9°C° 0.1 mm 3 mps 741 mmHg 74%
19:00 +8°C° 0.1 mm 3 mps 741 mmHg 79%
20:00 +7°C° 0.1 mm 2 mps 741 mmHg 84%
21:00 +7°C° 0.1 mm 2 mps 741 mmHg 86%
22:00 +6°C° 0.1 mm 2 mps 740 mmHg 88%
23:00 +6°C° 0.1 mm 2 mps 740 mmHg 90%

20 April, Tuesday

Time Temperature Precipitation Wind Pressure Humidity
00:00 +6°C° 0 mm 2 mps 740 mmHg 91%
01:00 +4°C° 0 mm 3 mps 739 mmHg 92%
02:00 +4°C° 0 mm 3 mps 739 mmHg 94%
03:00 +4°C° 0 mm 3 mps 739 mmHg 95%
04:00 +4°C° 0 mm 2 mps 739 mmHg 95%
05:00 +3°C° 0 mm 2 mps 738 mmHg 96%
06:00 +3°C° 0 mm 3 mps 738 mmHg 95%
07:00 +4°C° 0 mm 3 mps 738 mmHg 93%
08:00 +4°C° 0 mm 4 mps 738 mmHg 92%
09:00 +4°C° 0.2 mm 4 mps 738 mmHg 91%
10:00 +5°C° 0.2 mm 5 mps 737 mmHg 91%
11:00 +5°C° 0.2 mm 5 mps 737 mmHg 90%
12:00 +5°C° 0.1 mm 5 mps 737 mmHg 88%
13:00 +6°C° 0.1 mm 5 mps 737 mmHg 86%
14:00 +6°C° 0.1 mm 5 mps 736 mmHg 83%
15:00 +7°C° 0.2 mm 5 mps 736 mmHg 82%
16:00 +7°C° 0.2 mm 6 mps 736 mmHg 80%
17:00 +7°C° 0.2 mm 6 mps 736 mmHg 79%
18:00 +7°C° 0.3 mm 5 mps 736 mmHg 82%
19:00 +6°C° 0.3 mm 5 mps 736 mmHg 85%
20:00 +5°C° 0.3 mm 4 mps 736 mmHg 89%
21:00 +5°C° 0 mm 4 mps 736 mmHg 90%
22:00 +4°C° 0 mm 4 mps 736 mmHg 91%
23:00 +3°C° 0 mm 5 mps 735 mmHg 92%

21 April, Wednesday

Time Temperature Precipitation Wind Pressure Humidity
00:00 +3°C° 0 mm 5 mps 735 mmHg 91%
01:00 +3°C° 0 mm 5 mps 735 mmHg 91%
02:00 +4°C° 0 mm 6 mps 735 mmHg 90%
03:00 +3°C° 0 mm 6 mps 735 mmHg 91%
04:00 +3°C° 0 mm 6 mps 736 mmHg 91%
05:00 +2°C° 0 mm 6 mps 736 mmHg 92%
06:00 +3°C° 0 mm 6 mps 736 mmHg 89%
07:00 +3°C° 0 mm 6 mps 736 mmHg 85%
08:00 +4°C° 0 mm 6 mps 737 mmHg 82%
09:00 +5°C° 0 mm 7 mps 737 mmHg 76%
10:00 +6°C° 0 mm 7 mps 737 mmHg 70%
11:00 +7°C° 0 mm 8 mps 737 mmHg 65%
12:00 +9°C° 0 mm 8 mps 738 mmHg 62%
13:00 +9°C° 0 mm 8 mps 738 mmHg 60%
14:00 +10°C° 0 mm 8 mps 738 mmHg 57%
15:00 +9°C° 0 mm 7 mps 739 mmHg 59%
16:00 +9°C° 0 mm 7 mps 739 mmHg 61%
17:00 +8°C° 0 mm 6 mps 740 mmHg 63%
18:00 +7°C° 0 mm 5 mps 740 mmHg 67%
19:00 +7°C° 0 mm 3 mps 740 mmHg 71%
20:00 +5°C° 0 mm 2 mps 741 mmHg 75%
21:00 +5°C° 0 mm 2 mps 741 mmHg 77%
22:00 +4°C° 0 mm 3 mps 741 mmHg 80%
23:00 +3°C° 0 mm 3 mps 742 mmHg 83%
Show more

We Need Your Consent

Meteoprog and our Service Providers may store and access personal data such as cookies, device identifiers or other similar technologies on your device and process such data to personalise content and ads, as well as provide social media features and to analyse the traffic.

  • Store and/or access information on your device

    Cookies, device identifiers or other information can be stored or accessed on your device for the purposes indicated above.

  • Personalised ads and content, ad and content measurement, audience insights, and products development

    Ads and content can be personalised based on a profile. More data can be added to better personalise ads and content. Ad and content performance can be measured. Insights about the audience who saw the ads and content can be derived. Such data can be used to develop or improve user’s experience, systems and software.

By clicking ‘I Agree’ you will allow the use of indicated cookies, device identifiers, web beacons or other similar technologies. Your settings can be changed in the browser on your device.

For certain purposes, legitimate interests may be relied on, rather than consent. You can read more about this in our Privacy and Cookie Policy.